Location: *
(44.1392°N, 4.8079°E)
Time: 21:16:39
(UTC+00:00)

Cosmos 1833 Rocket - Pass Details

Date: 21 June 2021
Orbit: 832 x 840 km, 71.0° (Epoch: 02 August)

Event Time Altitude Azimuth Distance (km) Brightness Sun altitude
Exits shadow 02:24:13 - 173° (S) 2,693 4.9 -13.0°
Reaches altitude 10° 02:24:56 10° 170° (S) 2,445 4.7 -12.9°
Maximum altitude 02:30:00 36° 105° (ESE) 1,301 3.9 -12.3°
Drops below altitude 10° 02:35:06 10° 41° (NE) 2,463 6.7 -11.7°
Sets 02:37:43 0° 33° (NNE) 3,402 7.9 -11.4°
